Newport, AR

5:12 AM CST on December 10, 2019 (GMT -0600)
Newport

Weather History for KM19 - October, 2019

Change the Weather History Date:

Monday, October 21, 2019

  Actual Average (WUND) Record (WUND)
Temperature  
Mean Temperature 64 °F -  
Max Temperature 73 °F - - (-1)
Min Temperature 55 °F - - (-1)
Degree Days  
Heating Degree Days 1    
Growing Degree Days 14 (Base 50)    
Moisture  
Dew Point 60 °F    
Average Humidity 83    
Maximum Humidity 100    
Minimum Humidity 40    
Precipitation  
Precipitation 1.20 in - - ()
Sea Level Pressure  
Sea Level Pressure 29.71 in    
Wind  
Wind Speed 15 mph ()    
Max Wind Speed 43 mph    
Max Gust Speed 55 mph    
Visibility 8.6 miles    
Events Rain , Thunderstorm    
Averages and records for this station are not official NWS values.
T = Trace of Precipitation, MM = Missing Value Source: Averaged Metar Reports

Daily Weather History Graph

Daily Weather History Graph

Search for Another Location

Airport or City:

Astronomy

Oct. 21, 2019 Rise Set
Actual Time 7:16 AM CDT 6:21 PM CDT
Civil Twilight 6:50 AM CDT 6:47 PM CDT
Nautical Twilight 6:20 AM CDT 7:17 PM CDT
Astronomical Twilight 5:51 AM CDT 7:47 PM CDT
Moon No Moon Rise 2:27 PM CDT (10/21)
Length of Visible Light 11h 57m
Length of Day
11h 05m
Waning Gibbous, 48% of the Moon is Illuminated
Oct 21
Waning Gibbous
Oct 27
New
Nov 4
First Quarter
Nov 12
Full
Nov 19
Last Quarter

Hourly Weather History & Observations

Time (CDT) Temp. Dew Point Humidity Pressure Visibility Wind Dir Wind Speed Gust Speed Precip Events Conditions
12:54 AM 69.8 °F 66.2 °F 88% 29.66 in 10.0 mi SE 17.3 mph - N/A   Mostly Cloudy
12:56 AM 71.1 °F 66.9 °F 87% 29.65 in 10.0 mi SSE 18.4 mph - N/A   Mostly Cloudy
1:56 AM 71.1 °F 68.0 °F 90% 29.63 in 10.0 mi SSE 17.3 mph - N/A   Overcast
3:15 AM 73.4 °F 69.8 °F 88% 29.61 in 5.0 mi South 15.0 mph - 0.02 in Thunderstorm Overcast
3:28 AM 71.6 °F 69.8 °F 94% 29.62 in 2.0 mi SW 42.6 mph 55.2 mph 0.17 in Thunderstorm Overcast
3:30 AM 71.6 °F 69.8 °F 94% 29.64 in 1.0 mi WSW 32.2 mph 55.2 mph 0.31 in Thunderstorm Overcast
3:32 AM 71.6 °F 68.0 °F 88% 29.64 in 0.8 mi WSW 27.6 mph 55.2 mph 0.40 in Thunderstorm Overcast
3:34 AM 69.8 °F 68.0 °F 94% 29.64 in 0.8 mi West 18.4 mph 55.2 mph 0.47 in Thunderstorm Overcast
3:41 AM 68.0 °F 64.4 °F 88% 29.64 in 1.2 mi West 23.0 mph 34.5 mph 0.54 in Rain , Thunderstorm Thunderstorms and Rain
3:44 AM 68.0 °F 64.4 °F 88% 29.64 in 2.5 mi WSW 24.2 mph 34.5 mph 0.54 in Rain , Thunderstorm Light Thunderstorms and Rain
3:51 AM 68.0 °F 64.4 °F 88% 29.65 in 9.0 mi WSW 15.0 mph 29.9 mph 0.57 in Rain , Thunderstorm Thunderstorms and Rain
3:56 AM 68.0 °F 64.0 °F 87% 29.61 in 10.0 mi SW 10.4 mph 26.5 mph 0.57 in Rain , Thunderstorm Rain
4:26 AM 66.2 °F 64.4 °F 94% 29.66 in 10.0 mi South 15.0 mph - 0.03 in Rain Light Rain
4:49 AM 66.2 °F 64.4 °F 94% 29.68 in 8.0 mi SSW 12.7 mph - 0.09 in Rain Rain
4:56 AM 64.9 °F 64.0 °F 97% 29.66 in 10.0 mi SSW 4.6 mph - 0.11 in Rain Rain
4:59 AM 64.4 °F 64.4 °F 100% 29.67 in 10.0 mi South 8.1 mph - 0.01 in Rain , Thunderstorm Rain
5:10 AM 64.4 °F 64.4 °F 100% 29.66 in 8.0 mi SW 4.6 mph - 0.05 in Rain , Thunderstorm Rain
5:26 AM 64.4 °F 64.4 °F 100% 29.70 in 5.0 mi West 10.4 mph - 0.24 in Rain , Thunderstorm Heavy Rain
5:42 AM 64.4 °F 64.4 °F 100% 29.69 in 7.0 mi West 9.2 mph - 0.36 in Rain , Thunderstorm Rain
5:56 AM 64.0 °F 62.1 °F 93% 29.68 in 10.0 mi NW 4.6 mph - 0.41 in Rain Rain
6:56 AM 64.0 °F 63.0 °F 96% 29.66 in 10.0 mi SSE 10.4 mph - 0.09 in Rain Light Rain
7:41 AM 64.4 °F 62.6 °F 94% 29.68 in 10.0 mi SSW 11.5 mph - 0.01 in   Mostly Cloudy
7:56 AM 64.0 °F 63.0 °F 96% 29.69 in 10.0 mi SSW 12.7 mph - 0.01 in   Overcast
8:27 AM 64.4 °F 62.6 °F 94% 29.68 in 10.0 mi South 13.8 mph - 0.00 in Rain Light Rain
8:56 AM 64.0 °F 63.0 °F 96% 29.70 in 10.0 mi SW 12.7 mph - 0.00 in   Mostly Cloudy
8:59 AM 64.4 °F 62.6 °F 94% 29.71 in 10.0 mi SW 11.5 mph - N/A   Mostly Cloudy
9:06 AM 64.4 °F 62.6 °F 94% 29.72 in 10.0 mi SW 12.7 mph - N/A   Mostly Cloudy
9:14 AM 64.4 °F 62.6 °F 94% 29.72 in 10.0 mi SSW 15.0 mph - N/A   Overcast
9:41 AM 64.4 °F 62.6 °F 94% 29.72 in 10.0 mi SSW 16.1 mph - N/A   Overcast
9:56 AM 64.0 °F 62.1 °F 93% 29.71 in 10.0 mi SSW 13.8 mph - N/A   Overcast
10:13 AM 64.4 °F 62.6 °F 94% 29.71 in 10.0 mi SSW 15.0 mph - N/A   Overcast
10:23 AM 64.4 °F 62.6 °F 94% 29.72 in 10.0 mi SSW 15.0 mph - N/A   Overcast
10:56 AM 64.0 °F 62.1 °F 93% 29.72 in 10.0 mi SSW 12.7 mph - N/A   Overcast
11:26 AM 66.2 °F 62.6 °F 88% 29.76 in 10.0 mi SSW 15.0 mph - N/A   Mostly Cloudy
11:56 AM 66.0 °F 63.0 °F 90% 29.75 in 10.0 mi SSW 15.0 mph - 0.01 in   Overcast
12:06 PM 66.2 °F 62.6 °F 88% 29.76 in 10.0 mi SSW 13.8 mph - N/A   Overcast
12:16 PM 66.2 °F 62.6 °F 88% 29.76 in 10.0 mi SSW 12.7 mph 19.6 mph N/A   Overcast
12:56 PM 68.0 °F 61.0 °F 78% 29.75 in 10.0 mi SSW 15.0 mph - N/A   Overcast
1:29 PM 68.0 °F 60.8 °F 78% 29.74 in 10.0 mi SSW 18.4 mph - N/A   Scattered Clouds
1:56 PM 69.1 °F 57.0 °F 65% 29.75 in 10.0 mi SW 18.4 mph - N/A   Clear
2:56 PM 72.0 °F 55.0 °F 55% 29.74 in 10.0 mi SSW 19.6 mph 23.0 mph N/A   Clear
3:56 PM 72.0 °F 46.0 °F 40% 29.73 in 10.0 mi SW 19.6 mph - N/A   Clear
4:56 PM 70.0 °F 46.0 °F 42% 29.73 in 10.0 mi SW 15.0 mph - N/A   Clear
5:56 PM 66.9 °F 43.0 °F 42% 29.75 in 10.0 mi WSW 12.7 mph - N/A   Clear
6:56 PM 62.1 °F 44.1 °F 52% 29.77 in 10.0 mi SW 4.6 mph - N/A   Clear
7:56 PM 59.0 °F 43.0 °F 55% 29.82 in 10.0 mi WSW 9.2 mph - N/A   Clear
8:56 PM 59.0 °F 43.0 °F 55% 29.87 in 10.0 mi West 10.4 mph - N/A   Clear
9:56 PM 57.9 °F 43.0 °F 58% 29.91 in 10.0 mi West 10.4 mph - N/A   Clear
10:56 PM 55.9 °F 42.1 °F 60% 29.91 in 10.0 mi WSW 6.9 mph - N/A   Clear
11:56 PM 55.0 °F 42.1 °F 62% 29.91 in 10.0 mi WSW 5.8 mph - N/A   Clear